Location: A�t Lahcen
(32.8243°N, 5.4246°W)
Time: 00:56:01
(UTC+00:00)

SMAP - Pass Details

Date: 27 January 2021
Orbit: 681 x 683 km, 98.1° (Epoch: 27 February)

Event Time Altitude Azimuth Distance (km) Brightness Sun altitude
Rises 06:34:02 0° 12° (NNE) 3,047 6.4 -9.9°
Reaches altitude 10° 06:36:17 10° 13° (NNE) 2,128 5.6 -9.5°
Maximum altitude 06:40:56 88° 96° (E) 686 3.1 -8.5°
Drops below altitude 10° 06:45:35 10° 193° (SSW) 2,114 5.7 -7.6°
Sets 06:47:48 0° 193° (SSW) 3,025 6.5 -7.2°
